Location: Aiyekoto
(8.4333°N, 4.3667°E)
Time: 13:14:21
(UTC+00:00)

Cosmos 2344 - Pass Details

Date: 07 June 2020
Orbit: 1250 x 2992 km, 63.3° (Epoch: 07 July)

Event Time Altitude Azimuth Distance (km) Brightness Sun altitude
Exits shadow 03:10:18 46° 299° (WNW) 1,731 4.0 -30.1°
Drops below altitude 10° 03:17:08 10° 5° (N) 3,220 6.1 -28.7°
Sets 03:19:57 0° 12° (NNE) 4,189 6.9 -28.1°
